Regional Weather Roundup
Issued by NWS Sterling, VA

Home | Current Version | Previous Version | Text Only | Print | Product List | Glossary On
Versions: 1 2 3 4 5 6 7 8 9 10 11 12 13 14 15 16 17 18 19 20 21 22 23 24 25 26 27 28 29 30 31 32 33 34 35 36 37 38 39 40 41 42 43 44 45 46 47 48 49 50
000
ASUS41 KLWX 231310
RWRLWX

REGIONAL WEATHER ROUNDUP
NATIONAL WEATHER SERVICE BALTIMORE MD/WASHINGTON DC
900 AM EDT SAT MAY 23 2015

Note: "FAIR" indicates few or no clouds below 12,000 feet
with no significant weather and/or obstructions to visibility.
 TC=TEMPERATURE CELSIUS

 * =Non NWS site. Station does not report precipitation (e.g. rain,
    snow, etc.), thunder, or fog.

DCZ001-MDZ009-015-VAZ040>042-051-053>054-231400-
WASHINGTON METRO

CITY           SKY/WX    TMP DP  RH WIND       PRES   REMARKS
WASHINGTON NAT MOSUNNY   62  30  29 N10       30.46R
DULLES         MOSUNNY   58  31  35 NW7       30.46R
ANDREWS AFB    SUNNY     59  28  31 N10       30.45R
FT BELVOIR     SUNNY     60  28  28 NW6       30.46R
QUANTICO       SUNNY     62  30  29 NE8       30.48R
COLLEGE PARK*  SUNNY     57  32  38 NE6       30.46R
LEESBURG*      SUNNY     59  34  38 N6        30.47R
MANASSAS*      SUNNY     61  30  31 N7        30.47R
GAITHERSBURG*  SUNNY     54  32  43 NW5       30.49R

$$

MDZ006>007-011-014-231400-
BALTIMORE METRO

CITY           SKY/WX    TMP DP  RH WIND       PRES   REMARKS
BWI AIRPORT    MOSUNNY   59  29  31 VRB6      30.45R
MD SCIENCE CTR   N/A     58  24  27 MISG      30.45S
MARTIN STATE   MOSUNNY   57  30  35 NW7       30.46R
ANNAPOLIS      MOSUNNY   58  31  35 NW6       30.46R
FORT MEADE*    MOSUNNY   55  34  44 NW5       30.48R

$$

MDZ012-015-019>023-231400-
MARYLAND EASTERN SHORE

CITY           SKY/WX    TMP DP  RH WIND       PRES   REMARKS
OCEAN CITY     SUNNY     60  42  51 NE10      30.43R
SALISBURY      SUNNY     60  33  36 N8        30.43R
BAY BRIDGE AP*   N/A    N/A N/A N/A N10       30.46R
CAMBRIDGE*     MOSUNNY   61  28  29 N8        30.45R
EASTON*        MOSUNNY   59  32  36 N9G16     30.48R

$$

MDZ017>025-231400-
SOUTHERN MARYLAND

CITY           SKY/WX    TMP DP  RH WIND       PRES   REMARKS
PATUXENT RIVER MOSUNNY   62  32  32 N12       30.45R
ST INIGOES     SUNNY     62  34  35 VRB5      30.44R
LEONARDTOWN*   SUNNY     59  28  31 N7        30.47R

$$

MDZ003>005-231400-
NORTH CENTRAL MARYLAND

CITY           SKY/WX    TMP DP  RH WIND       PRES   REMARKS
FREDERICK*     SUNNY     55  37  50 CALM      30.48R
HAGERSTOWN APT SUNNY     56  26  31 NW6       30.46R
WESTMINSTER*   SUNNY     54  27  35 N7        30.45R

$$

MDZ501>502-231400-
WESTERN MARYLAND

CITY           SKY/WX    TMP DP  RH WIND       PRES   REMARKS
OAKLAND*       SUNNY     52  30  43 NW5       30.44R
CUMBERLAND*    SUNNY     52  32  46 CALM      30.50S

$$

VAZ025>031-231400-
SHENANDOAH VALLEY

CITY           SKY/WX    TMP DP  RH WIND       PRES   REMARKS
WINCHESTER*    SUNNY     61  19  20 CALM      30.45R
FRONT ROYAL*   FAIR      54  37  54 CALM      30.45R
LURAY*         FAIR      59  34  38 CALM      30.46R
NEW MARKET*    FAIR      54  38  54 CALM      30.45S
STAUNTON*      PTSUNNY   57  35  42 CALM      30.48R
WAYNESBORO*    FAIR      56  33  42 CALM      30.46R

$$

WVZ021-048>050-054>055-231400-
EASTERN WEST VIRGINIA PANHANDLE

CITY           SKY/WX    TMP DP  RH WIND       PRES   REMARKS
MARTINSBURG    SUNNY     56  34  43 NE3       30.46R
PETERSBURG*    SUNNY     53  41  65 CALM      30.46S

$$

VAZ036>039-050-231400-
CENTRAL FOOTHILLS

CITY           SKY/WX    TMP DP  RH WIND       PRES   REMARKS
CHARLOTTESVILL MOSUNNY   59  34  39 E6        30.46R
CULPEPER*      SUNNY     58  29  33 N6        30.48R
ORANGE*        SUNNY     61  32  33 N3        30.47R
GORDONSVILLE*  FAIR      59  31  33 NE7       30.46R
WARRENTON*     FAIR      60  33  35 N3        30.46R

$$

VAZ055>057-231400-
NORTH AND CENTRAL PIEDMONT

CITY           SKY/WX    TMP DP  RH WIND       PRES   REMARKS
FREDERICKSBRG* SUNNY     60  32  34 N6        30.47R
STAFFORD*      SUNNY     59  29  31 N5        30.51R

$$

NCZ024-NYZ072-PAZ021-071-VAZ022-071-231400-
OTHER REGIONAL OBSERVATIONS

CITY           SKY/WX    TMP DP  RH WIND       PRES   REMARKS
NEW YORK CITY  SUNNY     51  27  39 MISG      30.43R
PHILADELPHIA   MOSUNNY   55  27  34 N8        30.45R
PITTSBURGH     MOSUNNY   52  31  44 S5        30.44R
ROANOKE        SUNNY     61  47  59 NE5       30.47R
RICHMOND       MOSUNNY   62  35  36 N12       30.46R
RALEIGH        MOSUNNY   64  48  56 NE12      30.44R

$$

ANZ530>537-231400-
MARINE OBSERVATIONS

STATION/POSITION TIME  TEMP    WIND        PRES
                       AIR SEA DIR/SP/G
                 (UTC) (F)     (DEG/KT/KT) (MB)
THOMAS PT LIGHT  1300   58 64  360/ 12/ 13 1031.7R
BALT KEY BRIDGE  1200   56     320/ 11/ 13 1030.5R
LEWISETTA        1200   59 67              1030.2R
SOLOMONS ISLAND  1200      67                N/A
PINEY POINT      1200          350/  8/ 10   N/A

$$




USA.gov is the U.S. government's official web portal to all federal, state and local government web resources and services.